Regional Weather Roundup
Issued by NWS

Home | Current Version | Previous Version | Text Only | Print | Product List | Glossary Off
Versions: 1 2 3 4 5 6 7 8 9 10 11 12 13 14 15 16 17 18 19 20 21 22 23 24 25 26 27 28 29 30 31 32 33 34 35 36 37 38 39 40 41 42 43 44 45 46 47 48 49 50

000
ASUS45 KSLC 140710
RWRUT

UTAH REGIONAL WEATHER ROUNDUP
NATIONAL WEATHER SERVICE SALT LAKE CITY UT
1200 AM MST THU DEC 14 2017

UTZ001>011-023>025-140800-

NORTHERN UTAH

CITY           SKY/WX    TMP DP  RH WIND       PRES   REMARKS
BRIGHAM CITY   CLEAR     23  20  91 SW5       30.30S WCI  16
HILL AFB       CLEAR     27  25  93 S8        30.29R FOG     WCI  18
LOGAN          CLEAR     22  16  78 CALM      30.33R
OGDEN          CLEAR     24  22  91 S6        30.29R FOG     WCI  17
SALT LAKE CITY CLOUDY    29  27  92 N10       30.31R FOG     WCI  20
TOOELE VALLEY  CLEAR     23  23 100 SE5       30.32F FOG     WCI  17
WENDOVER       CLOUDY    21  15  78 CALM      30.35S
HEBER CITY     CLOUDY    34  27  75 N9        30.22R WCI  26
WEST JORDAN    CLOUDY    28  28  96 N9        30.29S WCI  20

$$

UTZ011>015-024>027-140800-

CENTRAL/NORTHEAST UTAH

CITY           SKY/WX    TMP DP  RH WIND       PRES   REMARKS
PROVO AIRPORT  CLOUDY    30  26  85 N7        30.29R WCI  23
MOAB/CANYONLAN CLOUDY    38  31  76 SE3       30.06F
DELTA          CLOUDY    28  19  69 NW10      30.25R WCI  19
PRICE          MOCLDY    38  27  64 W3        30.09R
RICHFIELD      CLOUDY    32  12  43 CALM      30.20S
ROOSEVELT      CLOUDY    32  12  43 N3        30.19R
VERNAL         CLOUDY    39  22  50 NE9       30.16R WCI  33

$$

UTZ013>016-019>022-027-140800-

SOUTHERN UTAH

CITY           SKY/WX    TMP DP  RH WIND       PRES   REMARKS
BRYCE CANYON     N/A    N/A N/A N/A MISG      30.13R
CEDAR CITY     PTCLDY    22   9  57 SE5       30.17R WCI  16
MILFORD        PTCLDY    20  12  71 NE7       30.22R WCI  11
ST GEORGE      MOSUNNY   37   4  25 SE3       30.04S
HANKSVILLE     CLOUDY    37   7  28 CALM      30.08S
KANAB          CLEAR     27   3  36 N6        30.10R WCI  20
BLANDING         N/A     43  31  62 N13       30.07F

$$

REGIONAL REPORTS     COLORADO/ARIZONA

CITY           SKY/WX    TMP DP  RH WIND       PRES   REMARKS
CRAIG, CO      LGT SNOW  30  28  92 W3        30.14F FOG
GRAND JUNCTION CLOUDY    39  33  79 N8        30.09R WCI  33
RIFLE, CO      CLOUDY    38  28  67 SE5       30.10S WCI  34
MONTROSE, CO   CLOUDY    36  13  38 NE6       30.07S WCI  31
CORTEZ, CO     CLOUDY    42  25  50 N12G18    30.04S
COLORADO CITY    N/A     25   0  33 CALM      30.08S
PAGE, AZ       CLOUDY    42  14  32 CALM      30.03R
GRAND CANYON   MOCLDY    22   2  42 CALM      30.06F
KINGMAN, AZ    PTCLDY    31   4  31 CALM      30.01F
FLAGSTAFF, AZ  PTCLDY    28  -2  27 CALM      30.07F

$$

REGIONAL REPORTS    NEVADA/IDAHO/WYOMING

CITY           SKY/WX    TMP DP  RH WIND       PRES   REMARKS
LAS VEGAS, NV  PTCLDY    52   8  17 CALM      29.99S
ELY, NY        PTCLDY    32   6  33 W8        30.27R WCI  25
ELKO, NV       PTCLDY    22  17  81 CALM      30.33R
POCATELLO, ID  CLOUDY    22  20  92 SW10      30.39S WCI  11
BURLEY, ID     CLOUDY    23  20  88 W5        30.43R WCI  17
FORT BRIDGER,  CLOUDY    28  22  78 NW7       30.26R WCI  21
EVANSTON, WY   CLOUDY    24  22  91 N7        30.23R WCI  16
ROCK SPRINGS,  CLOUDY    24  21  88 NE9       30.22R WCI  14

$$



USA.gov is the U.S. government's official web portal to all federal, state and local government web resources and services.